Location: Bruderhein
(53.8035°N, 112.9265°W)
Time: 02:16:22
(UTC+00:00)

PCSat - Visible Passes

Search period start: 26 March 2023 00:00
Search period end: 05 April 2023 00:00
Orbit: 784 x 794 km, 67.1° (Epoch: 25 March)

Date Brightness Start Highest point End Pass type
(mag) Time Alt. Az. Time Alt. Az. Time Alt. Az.
26 Mar 11.2 02:29:13 10° W 02:34:11 35° NNW 02:39:10 10° NE visible
26 Mar 11.8 04:15:03 10° NW 04:19:05 21° N 04:23:08 10° NE visible
26 Mar 11.4 05:59:46 10° NW 06:04:16 25° NNE 06:05:59 22° NE visible
26 Mar 10.8 07:43:13 10° NW 07:46:40 38° NNW 07:46:40 38° NNW visible
26 Mar 11.9 09:26:58 10° NW 09:27:20 12° NW 09:27:20 12° NW visible
27 Mar 11.8 03:43:22 10° WNW 03:47:30 21° N 03:51:38 10° NE visible
27 Mar 11.5 05:28:22 10° NW 05:32:42 23° NNE 05:35:22 17° NE visible
27 Mar 10.6 07:11:56 10° NW 07:16:02 43° N 07:16:02 43° N visible
27 Mar 11.7 08:55:30 10° NW 08:56:42 16° NW 08:56:42 16° NW visible
28 Mar 11.7 03:11:39 10° WNW 03:15:54 23° NNW 03:20:11 10° NE visible
28 Mar 11.6 04:56:56 10° NW 05:01:06 22° NNE 05:04:45 12° ENE visible
28 Mar 10.6 06:40:39 10° NW 06:45:25 42° NNE 06:45:25 42° NNE visible
28 Mar 11.4 08:24:07 10° NW 08:26:05 22° NW 08:26:05 22° NW visible
29 Mar 11.6 02:39:55 10° WNW 02:44:20 24° NNW 02:48:47 10° NE visible
29 Mar 11.7 04:25:26 10° NW 04:29:31 21° N 04:33:34 10° NE visible
29 Mar 10.7 06:09:21 10° NW 06:14:23 36° NNE 06:14:49 36° NE visible
29 Mar 11.0 07:52:45 10° NW 07:55:30 30° NW 07:55:30 30° NW visible
30 Mar 11.7 03:53:54 10° NW 03:57:54 20° N 04:01:54 10° NE visible
30 Mar 10.9 05:38:02 10° NW 05:42:54 32° NNE 05:44:14 28° NE visible
30 Mar 10.6 07:21:25 10° NW 07:24:54 41° NW 07:24:54 41° NW visible
31 Mar 11.7 03:22:18 10° NW 03:26:17 20° N 03:30:17 10° NE visible
31 Mar 11.1 05:06:42 10° NW 05:11:23 28° NNE 05:13:40 21° ENE visible
31 Mar 10.2 06:50:06 10° NW 06:54:20 54° NNW 06:54:20 54° NNW visible
31 Mar 11.8 08:34:05 10° WNW 08:35:01 14° WNW 08:35:01 14° WNW visible
01 Apr 11.7 02:50:38 10° NW 02:54:40 21° N 02:58:43 10° NE visible
01 Apr 11.3 04:35:20 10° NW 04:39:50 25° NNE 04:43:06 15° ENE visible
01 Apr 9.9 06:18:48 10° NW 06:23:46 60° NNE 06:23:46 60° NNE visible
01 Apr 11.5 08:02:32 10° NW 08:04:27 20° WNW 08:04:27 20° WNW visible
02 Apr 11.4 04:03:56 10° NW 04:08:16 23° NNE 04:12:33 10° ENE visible
02 Apr 10.0 05:47:30 10° NW 05:52:50 51° NE 05:53:13 50° NE visible
02 Apr 11.1 07:31:05 10° NW 07:33:54 28° WNW 07:33:54 28° WNW visible
03 Apr 11.5 03:32:29 10° NW 03:36:41 22° NNE 03:40:50 10° ENE visible
03 Apr 10.4 05:16:12 10° NW 05:21:24 43° NE 05:22:41 37° ENE visible
03 Apr 10.5 06:59:40 10° NW 07:03:22 40° WNW 07:03:22 40° WNW visible
04 Apr 11.5 03:01:00 10° NW 03:05:03 21° N 03:09:08 10° NE visible
04 Apr 10.6 04:44:54 10° NW 04:49:56 36° NNE 04:52:10 26° ENE visible
04 Apr 9.9 06:28:18 10° NW 06:32:51 58° WNW 06:32:51 58° WNW visible
04 Apr 12.0 08:13:14 10° WNW 08:13:32 11° WNW 08:13:32 11° WNW visible
